Other Surface Observations
Issued by NWS Charleston, SC

Home | Current Version | Previous Version | Text Only | Print | Product List | Glossary On
Versions: 1 2 3 4 5 6 7 8 9 10 11 12 13 14 15 16 17 18 19 20 21 22 23 24 25 26 27 28 29 30 31 32 33 34 35 36 37 38 39 40 41 42 43 44 45 46 47 48 49 50
000
SXUS52 KCHS 290927
OSOCHS

MARINE OBSERVATIONS
NATIONAL WEATHER SERVICE CHARLESTON SC
500 AM EDT SAT AUG 29 2015

...DOWNTOWN CHARLESTON AND HARBOR...

CITY           SKY/WX    TMP DP  RH WIND       PRES   REMARKS
WATERFRONT PRK   N/A     76  73  90 N7        30.09R

...LAKE MOULTRIE...

CITY           SKY/WX    TMP DP  RH WIND       PRES   REMARKS
PINOPOLIS        N/A     75  70  83 NE10      30.04F

...LAKE AND SUPPLEMENTAL COASTAL OBSERVATIONS...

STATION/POSITION TIME  TEMP    WIND        PRES    WAVE   SWELL
                       AIR SEA DIR/SP/G            HT/PER HT/PER/DIR
                 (UTC) (F)     (DEG/KT/KT) (MB)    (FT/S) (FT/S/D)
FORT PULASKI     NOT AVBL
SAPELO ISLAND    0900   77      10/  3     1018.0S
UPR LAKE MARION  NOT AVBL
WINYAH BAY       0800   72     350/  5     1019.0
LAKE MURRAY      0900   70      30/  2/  3 1020.3F
ACE BASIN NERRS  NOT AVBL


...C-MAN AND BUOY OBSERVATIONS...

STATION/POSITION TIME  TEMP    WIND        PRES    WAVE   SWELL
                       AIR SEA DIR/SP/G            HT/PER HT/PER/DIR
                 (UTC) (F)     (DEG/KT/KT) (MB)    (FT/S) (FT/S/D)
BUOY 41004       0850   81 84   40/ 14/ 16 1018.4S   4/ 6   2/11
BUOY 41008       0850   82 85   60/ 10/ 12 1018.6S   3/ 6   3/ 60/ 6
FOLLY BEACH CMAN 0900   76     360/  8/ 12 1019.6S
CAPERS NS BUOY   0808   80      40/ 14/ 17 1019.5F
FRIPP NS BUOY    0800   81      50/ 14/ 16 1018.9S
5E ST. MARYS GA  0821      86                N/A     3/11   2/100/11


STATION/POSITION TIME  TEMP    WIND        PRES    WAVE   SWELL
                       AIR SEA DIR/SP/G            HT/PER HT/PER/DIR
                 (UTC) (F)     (DEG/KT/KT) (MB)    (FT/S) (FT/S/D)
FRYING PAN BUOY  0850   80 81   40/ 17/ 21 1019.1F   5/ 6   2/140/11
BUOY 41025       0850   78 82   30/ 17/ 19 1019.4F   5/11   3/100/11
CAPE LOOKOUT NC  0900   77      30/ 19/ 23 1019.5S
BUOY 41002       0850   82 83  220/ 12/ 12 1019.2R   4/11   3/ 90/11
BUOY 41010       0820   83 85  120/ 10/ 10 1018.0S
ST AUGUSTINE FL  0900   81 85  210/  1/  2 1018.6R

$$



USA.gov is the U.S. government's official web portal to all federal, state and local government web resources and services.